Location: Cucq
(50.4773°N, 1.6202°E)
Time: 05:40:22
(UTC+00:00)

Cosmos 1607 - Pass Details

Date: 07 August 2020
Orbit: 911 x 991 km, 65.0° (Epoch: 19 September)

Event Time Altitude Azimuth Distance (km) Brightness Sun altitude
Rises 02:15:08 0° 318° (NW) 3,688 7.2 -16.9°
Reaches altitude 10° 02:17:43 10° 316° (NW) 2,745 6.5 -16.6°
Maximum altitude 02:24:06 67° 236° (SW) 1,072 4.0 -16.0°
Drops below altitude 10° 02:30:30 10° 155° (SSE) 2,747 6.1 -15.4°
Sets 02:33:05 0° 153° (SSE) 3,690 6.8 -15.2°
